FW1203 Weather Reports


Display with metric or nautical units.
time (UTC)temp
F
wind
direction
speed
MPH
gust
MPH
rain 1hr
in
rain 24hr
in
rain mn
in
humidity
%
barometer
mb
20260509070833 55 210 0.0 2.0 0.00 0.00 0.00 85 1003.2
20260509070333 56 0 0.0 0.0 0.00 0.00 0.00 85 1003.3
20260509065833 56 0 0.0 0.0 0.00 0.00 0.00 85 1003.4
20260509065333 56 0 0.0 0.0 0.00 0.00 0.00 85 1003.5
20260509064833 56 0 0.0 0.0 0.00 0.00 0.00 85 1003.4
20260509064333 56 261 0.0 1.0 0.00 0.00 0.00 85 1003.6
20260509063833 56 261 0.0 1.0 0.00 0.00 0.00 84 1003.7
20260509063333 56 262 0.0 1.0 0.00 0.00 0.00 85 1003.7
20260509062833 56 0 0.0 0.0 0.00 0.00 0.00 84 1003.7
20260509062333 57 267 0.0 3.0 0.00 0.00 0.00 84 1003.8
20260509061833 57 267 0.0 3.0 0.00 0.00 0.00 84 1003.8
20260509061333 57 235 0.0 2.0 0.00 0.00 0.00 84 1003.8
20260509060833 57 225 0.0 2.0 0.00 0.00 0.00 84 1003.8
20260509060333 57 225 0.0 2.0 0.00 0.00 0.00 84 1003.9
20260509055833 57 225 0.0 2.0 0.00 0.00 0.00 84 1004.0
20260509055333 57 225 0.0 1.0 0.00 0.00 0.00 84 1004.1
20260509054833 57 240 0.0 2.0 0.00 0.00 0.00 83 1004.1
20260509054333 57 210 0.0 2.0 0.00 0.00 0.00 83 1004.0
20260509053833 57 194 0.0 2.0 0.00 0.00 0.00 83 1004.1
20260509053333 57 0 0.0 0.0 0.00 0.00 0.00 83 1004.2
20260509052832 57 0 0.0 0.0 0.00 0.00 0.00 82 1004.2
20260509052333 57 0 0.0 0.0 0.00 0.00 0.00 82 1004.1
20260509051833 57 0 0.0 0.0 0.00 0.00 0.00 82 1004.1
20260509051333 57 0 0.0 0.0 0.00 0.00 0.00 82 1004.0
20260509050833 57 0 0.0 0.0 0.00 0.00 0.00 82 1003.9
20260509050333 56 204 0.0 2.0 0.00 0.00 0.00 82 1004.0
20260509045833 56 204 0.0 2.0 0.00 0.00 0.00 82 1004.2
20260509045333 56 244 0.0 2.0 0.00 0.00 0.00 82 1004.1
20260509044833 55 223 0.0 1.0 0.00 0.00 0.00 82 1003.9
20260509044333 55 223 0.0 1.0 0.00 0.00 0.00 82 1004.0
20260509043833 55 0 0.0 0.0 0.00 0.00 0.00 82 1004.1
20260509043333 55 0 0.0 0.0 0.00 0.00 0.00 82 1004.3
20260509042833 54 0 0.0 0.0 0.00 0.00 0.00 81 1004.4
20260509042333 54 0 0.0 0.0 0.00 0.00 0.00 81 1004.3
20260509041833 54 0 0.0 0.0 0.00 0.00 0.00 81 1004.2
20260509041333 54 0 0.0 0.0 0.00 0.00 0.00 81 1004.2
20260509040833 54 0 0.0 0.0 0.00 0.00 0.00 81 1004.2
20260509040333 53 0 0.0 0.0 0.00 0.00 0.00 81 1004.2
20260509035833 53 0 0.0 0.0 0.00 0.00 0.00 81 1004.3
20260509035333 53 0 0.0 0.0 0.00 0.00 0.00 81 1004.3
20260509034833 53 0 0.0 0.0 0.00 0.00 0.00 80 1004.4
20260509034333 53 0 0.0 0.0 0.00 0.00 0.00 79 1004.4
20260509033833 53 0 0.0 0.0 0.00 0.00 0.00 79 1004.5
20260509033333 53 0 0.0 0.0 0.00 0.00 0.00 79 1004.4
20260509032833 53 0 0.0 0.0 0.00 0.00 0.00 79 1004.4
20260509032333 53 0 0.0 0.0 0.00 0.00 0.00 79 1004.5
20260509031833 53 0 0.0 0.0 0.00 0.00 0.00 79 1004.5
20260509030833 53 0 0.0 0.0 0.00 0.00 0.00 78 1004.5
20260509030333 53 0 0.0 0.0 0.00 0.00 0.00 78 1004.5
20260509025833 53 0 0.0 0.0 0.00 0.00 0.00 78 1004.6
20260509025333 53 0 0.0 0.0 0.00 0.00 0.00 77 1004.6
20260509024833 53 0 0.0 0.0 0.00 0.00 0.00 77 1004.6
20260509024333 54 0 0.0 0.0 0.00 0.00 0.00 77 1004.7
20260509023833 54 0 0.0 0.0 0.00 0.00 0.00 77 1004.7
20260509023333 54 0 0.0 0.0 0.00 0.00 0.00 76 1004.7
20260509022833 54 0 0.0 0.0 0.00 0.00 0.00 76 1004.7
20260509022333 54 0 0.0 0.0 0.00 0.00 0.00 76 1004.8
20260509021833 54 0 0.0 0.0 0.00 0.00 0.00 75 1004.8
20260509021333 54 0 0.0 0.0 0.00 0.00 0.00 75 1004.9
20260509020833 54 0 0.0 0.0 0.00 0.00 0.00 74 1004.9
20260509020333 54 0 0.0 0.0 0.00 0.00 0.00 74 1005.0
20260509015833 54 0 0.0 0.0 0.00 0.00 0.00 73 1005.0
20260509015333 54 0 0.0 0.0 0.00 0.00 0.00 72 1004.9
20260509014833 55 0 0.0 0.0 0.00 0.00 0.00 72 1004.9
20260509014333 55 0 0.0 0.0 0.00 0.00 0.00 71 1004.9
20260509013833 55 0 0.0 0.0 0.00 0.00 0.00 70 1004.9
20260509013333 55 0 0.0 0.0 0.00 0.00 0.00 70 1005.0
20260509012833 55 0 0.0 0.0 0.00 0.00 0.00 69 1004.9
20260509012333 55 0 0.0 0.0 0.00 0.00 0.00 68 1004.9
20260509011833 55 0 0.0 0.0 0.00 0.00 0.00 68 1004.8
20260509011333 55 0 0.0 0.0 0.00 0.00 0.00 67 1004.9
20260509010833 56 0 0.0 0.0 0.00 0.00 0.00 66 1004.9
20260509010332 56 223 0.0 1.0 0.00 0.00 0.00 66 1004.9
20260509005833 56 223 0.0 1.0 0.00 0.00 0.00 65 1004.9
20260509005333 56 223 0.0 1.0 0.00 0.00 0.00 64 1004.9
20260509004833 56 0 0.0 0.0 0.00 0.00 0.00 63 1004.9
20260509004333 57 0 0.0 0.0 0.00 0.00 0.00 63 1004.8
20260509003833 57 0 0.0 0.0 0.00 0.00 0.00 63 1004.8
20260509003333 57 0 0.0 0.0 0.00 0.00 0.00 62 1004.8
20260509002833 57 0 0.0 0.0 0.00 0.00 0.00 62 1004.9
20260509002333 57 0 0.0 0.0 0.00 0.00 0.00 60 1005.0
20260509001833 58 0 0.0 0.0 0.00 0.00 0.00 60 1005.1
20260509001333 58 0 0.0 0.0 0.00 0.00 0.00 60 1005.2
20260509000833 58 0 0.0 0.0 0.00 0.00 0.00 59 1005.2
20260509000333 58 0 0.0 0.0 0.00 0.00 0.00 59 1005.1
20260508235833 58 0 0.0 0.0 0.00 0.00 0.00 58 1005.2
20260508235333 59 0 0.0 0.0 0.00 0.00 0.00 58 1005.3
20260508234833 59 0 0.0 0.0 0.00 0.00 0.00 58 1005.3
20260508234333 59 0 0.0 0.0 0.00 0.00 0.00 56 1005.3
20260508233833 59 0 0.0 0.0 0.00 0.00 0.00 56 1005.4
20260508233332 60 0 0.0 0.0 0.00 0.00 0.00 56 1005.4
20260508232832 60 0 0.0 0.0 0.00 0.00 0.00 56 1005.3
20260508232333 60 0 0.0 0.0 0.00 0.00 0.00 56 1005.4
20260508231832 60 0 0.0 0.0 0.00 0.00 0.00 56 1005.4
20260508231333 60 0 0.0 0.0 0.00 0.00 0.00 56 1005.5
20260508230833 60 0 0.0 0.0 0.00 0.00 0.00 56 1005.5
20260508230332 60 0 0.0 0.0 0.00 0.00 0.00 56 1005.5
20260508225833 60 0 0.0 0.0 0.00 0.00 0.00 56 1005.6
20260508225333 60 119 0.0 1.0 0.00 0.00 0.00 56 1005.6
20260508224833 60 119 0.0 1.0 0.00 0.00 0.00 55 1005.7
20260508224333 60 116 0.0 3.0 0.00 0.00 0.00 54 1005.6
20260508223833 60 108 0.0 3.0 0.00 0.00 0.00 54 1005.6
20260508223332 60 58 0.0 1.0 0.00 0.00 0.00 53 1005.6
20260508222833 60 51 0.0 1.0 0.00 0.00 0.00 52 1005.7
20260508222333 60 51 0.0 2.0 0.00 0.00 0.00 51 1005.7
20260508221833 60 346 0.0 2.0 0.00 0.00 0.00 49 1005.7
20260508221333 60 60 0.0 2.0 0.00 0.00 0.00 50 1005.8
20260508220833 61 0 0.0 0.0 0.00 0.00 0.00 48 1005.8
20260508220333 61 186 0.0 2.0 0.00 0.00 0.00 47 1005.8
20260508215333 61 156 0.0 1.0 0.00 0.00 0.00 47 1005.9
20260508214833 61 156 0.0 4.0 0.00 0.00 0.00 45 1005.8
20260508214333 61 218 0.0 4.0 0.00 0.00 0.00 45 1005.9
20260508213833 61 151 1.0 4.0 0.00 0.00 0.00 43 1005.9
20260508213333 61 148 1.0 5.0 0.00 0.01 0.00 42 1006.0
20260508212833 62 168 1.0 5.0 0.00 0.01 0.00 41 1006.0
20260508212333 62 127 1.0 5.0 0.00 0.02 0.00 43 1006.1
20260508211833 62 158 1.0 5.0 0.00 0.03 0.00 41 1006.2
20260508211333 62 109 1.0 5.0 0.00 0.03 0.00 41 1006.2
20260508210833 62 175 1.0 5.0 0.00 0.03 0.00 43 1006.2
20260508210333 63 171 1.0 5.0 0.00 0.04 0.00 43 1006.1
20260508205833 63 161 1.0 5.0 0.00 0.04 0.00 44 1006.2
20260508205333 63 103 1.0 5.0 0.00 0.05 0.00 43 1006.1
20260508204833 63 160 1.0 7.0 0.00 0.05 0.00 43 1006.3
20260508204333 63 163 2.0 7.0 0.00 0.05 0.00 42 1006.3
20260508203833 64 177 1.0 6.0 0.00 0.05 0.00 41 1006.4
20260508203333 64 245 0.0 4.0 0.00 0.05 0.00 40 1006.5
20260508202833 64 197 1.0 8.0 0.00 0.05 0.00 42 1006.6
20260508202333 64 148 1.0 8.0 0.00 0.05 0.00 39 1006.7
20260508201833 64 175 0.0 4.0 0.00 0.05 0.00 41 1006.7
20260508201333 63 184 1.0 8.0 0.00 0.05 0.00 42 1006.8
20260508200833 64 144 1.0 8.0 0.00 0.05 0.00 40 1006.9
20260508200333 64 140 1.0 4.0 0.00 0.05 0.00 41 1007.0
20260508195833 64 219 1.0 4.0 0.00 0.05 0.00 44 1007.1
20260508195333 63 178 0.0 4.0 0.00 0.05 0.00 45 1007.1
20260508194833 63 165 1.0 4.0 0.00 0.05 0.00 43 1007.2
20260508194333 63 157 1.0 5.0 0.00 0.05 0.00 46 1007.2
20260508193833 63 117 2.0 6.0 0.00 0.05 0.00 47 1007.3
20260508193333 63 128 1.0 6.0 0.00 0.05 0.00 51 1007.4
20260508192833 63 212 0.0 5.0 0.00 0.05 0.00 50 1007.4
20260508192333 63 179 0.0 3.0 0.00 0.05 0.00 53 1007.5
20260508191832 62 360 0.0 7.0 0.00 0.05 0.00 53 1007.4
20260508191333 62 108 1.0 7.0 0.00 0.05 0.00 52 1007.5
20260508190833 62 155 1.0 6.0 0.00 0.05 0.00 51 1007.6
20260508190333 63 170 1.0 6.0 0.00 0.05 0.00 52 1007.7
20260508185833 63 158 1.0 6.0 0.00 0.05 0.00 56 1007.8
20260508185333 63 168 1.0 5.0 0.00 0.05 0.00 55 1007.9
20260508184833 63 45 0.0 4.0 0.00 0.05 0.00 60 1008.0
20260508184333 63 55 1.0 4.0 0.00 0.05 0.00 58 1008.0
20260508183833 63 38 0.0 3.0 0.00 0.05 0.00 62 1008.1
20260508183333 63 356 0.0 3.0 0.00 0.05 0.00 61 1008.1
20260508182833 63 294 0.0 1.0 0.00 0.05 0.00 62 1008.2
20260508182333 62 294 0.0 1.0 0.00 0.05 0.00 63 1008.2
20260508181833 62 84 0.0 1.0 0.00 0.05 0.00 65 1008.2
20260508181333 62 158 0.0 1.0 0.00 0.05 0.00 66 1008.3
20260508180833 62 355 0.0 3.0 0.00 0.05 0.00 67 1008.4
20260508180333 62 92 0.0 3.0 0.00 0.05 0.00 65 1008.4
20260508175833 62 17 0.0 3.0 0.00 0.05 0.00 64 1008.5
20260508175333 62 17 0.0 3.0 0.00 0.05 0.00 61 1008.5
20260508174833 62 152 1.0 3.0 0.00 0.05 0.00 65 1008.6
20260508174333 62 20 0.0 1.0 0.00 0.05 0.00 66 1008.6
20260508173833 62 189 0.0 1.0 0.00 0.05 0.00 68 1008.8
20260508173333 62 189 0.0 2.0 0.00 0.05 0.00 67 1008.8
20260508172833 62 127 0.0 6.0 0.00 0.05 0.00 68 1009.0
20260508172333 61 165 0.0 6.0 0.00 0.05 0.00 68 1009.0
20260508171833 61 181 0.0 4.0 0.00 0.05 0.00 70 1009.1
20260508171333 61 284 0.0 4.0 0.00 0.05 0.00 71 1009.2
20260508170833 61 126 0.0 1.0 0.00 0.05 0.00 70 1009.3
20260508170333 60 153 0.0 1.0 0.00 0.05 0.00 69 1009.3
20260508165832 60 153 0.0 1.0 0.00 0.05 0.00 69 1009.3
20260508165333 60 142 0.0 1.0 0.00 0.05 0.00 69 1009.4
20260508164833 60 142 0.0 1.0 0.00 0.05 0.00 70 1009.5
20260508164333 60 0 0.0 0.0 0.00 0.05 0.00 68 1009.6
20260508163833 60 0 0.0 0.0 0.00 0.05 0.00 71 1009.7
20260508163333 60 0 0.0 0.0 0.00 0.05 0.00 71 1009.9
20260508162833 60 171 0.0 1.0 0.00 0.05 0.00 68 1009.9
20260508162333 60 171 0.0 1.0 0.00 0.05 0.00 72 1009.9
20260508161833 60 172 0.0 1.0 0.00 0.05 0.00 70 1009.9
20260508161333 60 0 0.0 0.0 0.00 0.05 0.00 73 1009.9
20260508160833 60 181 0.0 1.0 0.00 0.05 0.00 73 1009.9
20260508160333 59 181 0.0 3.0 0.00 0.05 0.00 74 1009.9
20260508155833 59 190 0.0 3.0 0.00 0.05 0.00 75 1009.9
20260508155333 59 0 0.0 0.0 0.00 0.05 0.00 76 1010.0
20260508154833 59 0 0.0 0.0 0.00 0.05 0.00 76 1010.0
20260508154333 58 106 0.0 1.0 0.00 0.05 0.00 77 1010.1
20260508153833 58 106 0.0 1.0 0.00 0.05 0.00 76 1010.2
20260508153333 58 0 0.0 0.0 0.00 0.05 0.00 76 1010.2
20260508152833 58 0 0.0 0.0 0.00 0.05 0.00 76 1010.1
20260508152333 57 0 0.0 0.0 0.00 0.05 0.00 78 1010.2
20260508151833 57 0 0.0 0.0 0.00 0.05 0.00 77 1010.4
20260508151333 57 0 0.0 0.0 0.00 0.05 0.00 79 1010.3
20260508150833 56 100 0.0 2.0 0.00 0.05 0.00 79 1010.4
20260508150333 56 100 0.0 2.0 0.00 0.05 0.00 78 1010.3
20260508145833 55 0 0.0 0.0 0.00 0.05 0.00 79 1010.3
20260508145333 55 0 0.0 0.0 0.00 0.05 0.00 80 1010.3
20260508144833 55 0 0.0 0.0 0.00 0.05 0.00 81 1010.4
20260508144333 54 0 0.0 0.0 0.00 0.05 0.00 81 1010.4
20260508143833 54 0 0.0 0.0 0.00 0.05 0.00 82 1010.4
20260508143333 54 0 0.0 0.0 0.00 0.05 0.00 84 1010.4
20260508142832 53 0 0.0 0.0 0.00 0.05 0.00 85 1010.4
20260508142333 53 0 0.0 0.0 0.00 0.05 0.00 86 1010.4
20260508141833 53 0 0.0 0.0 0.00 0.05 0.00 87 1010.4
20260508141333 52 0 0.0 0.0 0.00 0.05 0.00 90 1010.5
20260508140833 52 0 0.0 0.0 0.00 0.05 0.00 92 1010.4
20260508140333 51 0 0.0 0.0 0.00 0.05 0.00 94 1010.4
20260508135833 50 0 0.0 0.0 0.00 0.05 0.00 96 1010.5
20260508135333 50 173 0.0 1.0 0.00 0.05 0.00 96 1010.4
20260508134833 49 173 0.0 1.0 0.00 0.05 0.00 97 1010.5
20260508134333 49 193 0.0 1.0 0.00 0.05 0.00 98 1010.4
20260508133833 49 193 0.0 1.0 0.00 0.05 0.00 98 1010.5
20260508133333 48 0 0.0 0.0 0.00 0.05 0.00 98 1010.5
20260508132833 48 0 0.0 0.0 0.00 0.05 0.00 98 1010.6
20260508132333 48 0 0.0 0.0 0.00 0.05 0.00 98 1010.6
20260508131833 47 0 0.0 0.0 0.00 0.05 0.00 98 1010.6
20260508130833 47 0 0.0 0.0 0.00 0.05 0.00 98 1010.7
20260508130333 46 0 0.0 0.0 0.00 0.05 0.00 98 1010.7
20260508125833 46 0 0.0 0.0 0.00 0.05 0.00 98 1010.7
20260508125333 45 0 0.0 0.0 0.00 0.05 0.00 98 1010.6
20260508124833 44 0 0.0 0.0 0.00 0.05 0.00 98 1010.9
20260508124333 43 0 0.0 0.0 0.00 0.05 0.00 98 1010.8
20260508123833 43 0 0.0 0.0 0.00 0.05 0.00 98 1010.7
20260508123333 42 0 0.0 0.0 0.00 0.05 0.00 98 1010.7
20260508122833 42 0 0.0 0.0 0.00 0.05 0.00 98 1010.7
20260508122333 41 0 0.0 0.0 0.00 0.05 0.00 98 1010.8
20260508121833 41 0 0.0 0.0 0.00 0.05 0.00 97 1010.8
20260508121333 40 0 0.0 0.0 0.00 0.05 0.00 97 1010.8
20260508120833 40 0 0.0 0.0 0.00 0.05 0.00 97 1010.8
20260508120333 39 0 0.0 0.0 0.00 0.05 0.00 97 1010.7
20260508115833 38 0 0.0 0.0 0.00 0.05 0.00 97 1010.5
20260508115333 38 0 0.0 0.0 0.00 0.05 0.00 97 1010.6
20260508114833 37 0 0.0 0.0 0.00 0.05 0.00 96 1010.4
20260508114333 37 0 0.0 0.0 0.00 0.05 0.00 96 1010.4
20260508113833 37 0 0.0 0.0 0.00 0.05 0.00 96 1010.4
20260508113333 36 0 0.0 0.0 0.00 0.05 0.00 96 1010.4
20260508112333 36 0 0.0 0.0 0.00 0.05 0.00 95 1010.3
20260508111833 36 0 0.0 0.0 0.00 0.05 0.00 95 1010.3
20260508111332 36 0 0.0 0.0 0.00 0.05 0.00 95 1010.3
20260508110833 36 0 0.0 0.0 0.00 0.05 0.00 95 1010.3
20260508110333 36 0 0.0 0.0 0.00 0.05 0.00 95 1010.3
20260508105833 36 0 0.0 0.0 0.00 0.05 0.00 95 1010.2
20260508105333 36 0 0.0 0.0 0.00 0.05 0.00 95 1010.3
20260508104833 37 0 0.0 0.0 0.00 0.05 0.00 95 1010.2
20260508104333 37 0 0.0 0.0 0.00 0.05 0.00 95 1010.2
20260508103833 37 0 0.0 0.0 0.00 0.05 0.00 95 1010.1
20260508103333 37 0 0.0 0.0 0.00 0.05 0.00 95 1010.3
20260508102833 37 0 0.0 0.0 0.00 0.05 0.00 95 1010.3
20260508102333 37 0 0.0 0.0 0.00 0.05 0.00 95 1010.4
20260508101833 37 0 0.0 0.0 0.00 0.05 0.00 94 1010.3
20260508101333 37 0 0.0 0.0 0.00 0.05 0.00 95 1010.3
20260508100833 37 0 0.0 0.0 0.00 0.05 0.00 95 1010.3
20260508100333 38 0 0.0 0.0 0.00 0.05 0.00 95 1010.4
20260508095832 38 0 0.0 0.0 0.00 0.05 0.00 95 1010.4
20260508095333 38 0 0.0 0.0 0.00 0.05 0.00 95 1010.4
20260508094833 38 0 0.0 0.0 0.00 0.05 0.00 95 1010.5
20260508094333 38 0 0.0 0.0 0.00 0.05 0.00 95 1010.5
20260508093833 38 0 0.0 0.0 0.00 0.05 0.00 95 1010.5
20260508093333 38 0 0.0 0.0 0.00 0.05 0.00 95 1010.6
20260508092833 38 0 0.0 0.0 0.00 0.05 0.00 95 1010.5
20260508092333 39 0 0.0 0.0 0.00 0.05 0.00 95 1010.6
20260508091833 39 0 0.0 0.0 0.00 0.05 0.00 95 1010.6
20260508091333 39 0 0.0 0.0 0.00 0.05 0.00 95 1010.5
20260508090833 39 0 0.0 0.0 0.00 0.05 0.00 95 1010.6
20260508090333 39 0 0.0 0.0 0.00 0.05 0.00 95 1010.5
20260508085833 39 0 0.0 0.0 0.00 0.05 0.00 95 1010.5
20260508085333 39 0 0.0 0.0 0.00 0.05 0.00 95 1010.6
20260508084833 40 0 0.0 0.0 0.00 0.05 0.00 95 1010.6
20260508084333 40 0 0.0 0.0 0.00 0.05 0.00 95 1010.6
20260508083833 40 0 0.0 0.0 0.00 0.05 0.00 95 1010.6
20260508083333 40 0 0.0 0.0 0.00 0.05 0.00 95 1010.5
20260508082833 40 0 0.0 0.0 0.00 0.05 0.00 95 1010.5
20260508082333 40 0 0.0 0.0 0.00 0.05 0.00 95 1010.5
20260508081833 40 0 0.0 0.0 0.00 0.05 0.00 95 1010.6
20260508081333 40 0 0.0 0.0 0.00 0.05 0.00 95 1010.6
20260508080833 40 0 0.0 0.0 0.00 0.05 0.00 95 1010.7
20260508080333 40 0 0.0 0.0 0.00 0.05 0.00 95 1010.7
20260508075333 40 0 0.0 0.0 0.00 0.05 0.00 95 1010.9
20260508074833 40 0 0.0 0.0 0.00 0.05 0.00 95 1010.9
20260508074333 40 0 0.0 0.0 0.00 0.05 0.00 95 1011.0
20260508073833 40 0 0.0 0.0 0.00 0.05 0.00 95 1011.0
20260508073333 40 0 0.0 0.0 0.00 0.05 0.00 94 1011.0
20260508072833 41 0 0.0 0.0 0.00 0.05 0.00 94 1011.0
20260508072333 41 0 0.0 0.0 0.00 0.05 0.00 94 1011.0
20260508071833 41 0 0.0 0.0 0.00 0.05 0.00 95 1010.9
20260508071333 41 0 0.0 0.0 0.00 0.05 0.00 95 1011.0